| time (UTC) | temp F | wind direction | speed MPH | gust MPH | rain 1hr in | rain 24hr in | rain mn in | humidity % | barometer mb |
| 20260510072549 | 74 | 222 | 0.0 | 0.0 | 0.00 | 0.18 | 0.12 | 73 | 1016.6 |
| 20260510072048 | 74 | 221 | 0.0 | 0.0 | 0.00 | 0.18 | 0.12 | 73 | 1016.6 |
| 20260510071548 | 74 | 112 | 0.0 | 0.0 | 0.00 | 0.18 | 0.12 | 73 | 1016.7 |
| 20260510071045 | 74 | 210 | 0.0 | 0.0 | 0.00 | 0.18 | 0.12 | 73 | 1016.7 |
| 20260510070546 | 74 | 218 | 0.0 | 0.0 | 0.00 | 0.18 | 0.12 | 73 | 1016.6 |
| 20260510070048 | 74 | 136 | 0.0 | 0.0 | 0.00 | 0.18 | 0.12 | 74 | 1016.7 |
| 20260510065543 | 74 | 167 | 0.0 | 0.0 | 0.00 | 0.18 | 0.12 | 74 | 1016.7 |
| 20260510065042 | 74 | 139 | 0.0 | 0.0 | 0.00 | 0.18 | 0.12 | 74 | 1016.7 |
| 20260510064557 | 74 | 198 | 0.0 | 0.0 | 0.00 | 0.18 | 0.12 | 74 | 1016.8 |
| 20260510064041 | 74 | 148 | 0.0 | 0.0 | 0.00 | 0.18 | 0.12 | 74 | 1016.7 |
| 20260510063539 | 74 | 197 | 0.0 | 0.0 | 0.00 | 0.18 | 0.12 | 74 | 1016.8 |
| 20260510063045 | 74 | 215 | 0.0 | 0.0 | 0.00 | 0.18 | 0.12 | 74 | 1016.8 |
| 20260510062537 | 74 | 145 | 0.0 | 0.0 | 0.00 | 0.18 | 0.12 | 74 | 1016.9 |
| 20260510062039 | 74 | 212 | 0.0 | 0.0 | 0.00 | 0.18 | 0.12 | 74 | 1016.9 |
| 20260510061545 | 74 | 207 | 0.0 | 0.0 | 0.00 | 0.18 | 0.12 | 74 | 1016.9 |
| 20260510061035 | 74 | 130 | 0.0 | 0.0 | 0.00 | 0.18 | 0.12 | 74 | 1016.9 |
| 20260510060534 | 74 | 118 | 0.0 | 0.0 | 0.01 | 0.18 | 0.12 | 74 | 1017.0 |
| 20260510060039 | 74 | 132 | 0.0 | 0.0 | 0.02 | 0.18 | 0.12 | 74 | 1017.2 |
| 20260510055533 | 74 | 174 | 0.0 | 0.0 | 0.03 | 0.18 | 0.12 | 75 | 1017.1 |
| 20260510055031 | 74 | 125 | 0.0 | 0.0 | 0.11 | 0.18 | 0.12 | 74 | 1017.2 |
| 20260510054530 | 74 | 118 | 0.0 | 0.0 | 0.11 | 0.18 | 0.12 | 74 | 1017.2 |
| 20260510054029 | 74 | 220 | 0.0 | 0.0 | 0.11 | 0.18 | 0.12 | 74 | 1017.1 |
| 20260510053528 | 74 | 215 | 0.0 | 0.0 | 0.11 | 0.18 | 0.12 | 74 | 1017.2 |
| 20260510053027 | 74 | 178 | 0.0 | 0.0 | 0.11 | 0.18 | 0.12 | 74 | 1017.2 |
| 20260510052525 | 74 | 216 | 0.0 | 0.0 | 0.12 | 0.18 | 0.12 | 73 | 1017.3 |
| 20260510052024 | 74 | 219 | 0.0 | 0.0 | 0.12 | 0.18 | 0.12 | 72 | 1017.3 |
| 20260510051523 | 74 | 120 | 0.0 | 0.0 | 0.12 | 0.18 | 0.12 | 72 | 1017.3 |
| 20260510051021 | 74 | 120 | 0.0 | 0.0 | 0.12 | 0.18 | 0.12 | 71 | 1017.3 |
| 20260510050522 | 75 | 125 | 0.0 | 0.0 | 0.11 | 0.17 | 0.11 | 70 | 1017.4 |
| 20260510050019 | 75 | 212 | 0.0 | 0.0 | 0.09 | 0.15 | 0.09 | 69 | 1017.4 |
| 20260510045518 | 75 | 203 | 0.0 | 0.0 | 0.07 | 0.13 | 0.07 | 68 | 1017.5 |
| 20260510045020 | 76 | 169 | 0.0 | 0.0 | 0.01 | 0.07 | 0.01 | 67 | 1017.6 |
| 20260510044514 | 76 | 163 | 0.0 | 0.0 | 0.01 | 0.07 | 0.01 | 66 | 1017.5 |
| 20260510044013 | 76 | 179 | 0.0 | 0.0 | 0.01 | 0.07 | 0.01 | 66 | 1017.5 |
| 20260510043512 | 76 | 174 | 0.0 | 0.0 | 0.01 | 0.07 | 0.01 | 66 | 1017.6 |
| 20260510043012 | 76 | 195 | 0.0 | 0.0 | 0.00 | 0.06 | 0.00 | 66 | 1017.4 |
| 20260510042510 | 76 | 127 | 0.0 | 0.0 | 0.00 | 0.06 | 0.00 | 66 | 1017.5 |
| 20260510042010 | 76 | 181 | 0.0 | 0.0 | 0.00 | 0.06 | 0.00 | 65 | 1017.5 |
| 20260510041508 | 76 | 147 | 0.0 | 0.0 | 0.00 | 0.06 | 0.00 | 65 | 1017.5 |
| 20260510041008 | 76 | 131 | 0.0 | 0.0 | 0.00 | 0.06 | 0.00 | 65 | 1017.6 |
| 20260510040506 | 76 | 136 | 0.0 | 0.0 | 0.00 | 0.06 | 0.00 | 65 | 1017.7 |
| 20260510040006 | 76 | 132 | 0.0 | 0.0 | 0.00 | 0.06 | 0.00 | 65 | 1017.7 |
| 20260510035503 | 76 | 114 | 0.0 | 0.0 | 0.00 | 0.06 | 0.06 | 65 | 1017.8 |
| 20260510035002 | 76 | 145 | 0.0 | 0.0 | 0.00 | 0.06 | 0.06 | 65 | 1017.8 |
| 20260510034502 | 76 | 123 | 0.0 | 0.0 | 0.00 | 0.06 | 0.06 | 65 | 1017.9 |
| 20260510034002 | 76 | 85 | 0.0 | 0.0 | 0.00 | 0.06 | 0.06 | 65 | 1017.9 |
| 20260510033602 | 76 | 128 | 0.0 | 0.0 | 0.00 | 0.06 | 0.06 | 65 | 1017.9 |
| 20260510033001 | 76 | 144 | 0.0 | 0.0 | 0.00 | 0.06 | 0.06 | 66 | 1018.0 |
| 20260510032558 | 75 | 200 | 0.0 | 0.0 | 0.00 | 0.06 | 0.06 | 66 | 1018.1 |
| 20260510032102 | 75 | 139 | 0.0 | 0.0 | 0.00 | 0.06 | 0.06 | 66 | 1018.2 |
| 20260510031609 | 76 | 224 | 0.0 | 0.0 | 0.00 | 0.06 | 0.06 | 66 | 1018.2 |
| 20260510031057 | 76 | 224 | 0.0 | 0.0 | 0.00 | 0.06 | 0.06 | 66 | 1018.2 |
| 20260510030557 | 76 | 199 | 0.0 | 0.0 | 0.00 | 0.06 | 0.06 | 66 | 1018.2 |
| 20260510030105 | 76 | 174 | 0.0 | 0.0 | 0.00 | 0.06 | 0.06 | 66 | 1018.1 |
| 20260510025556 | 76 | 164 | 0.0 | 0.0 | 0.00 | 0.19 | 0.06 | 66 | 1018.1 |
| 20260510025056 | 76 | 217 | 0.0 | 0.0 | 0.00 | 0.19 | 0.06 | 66 | 1018.1 |
| 20260510024556 | 76 | 138 | 0.0 | 0.0 | 0.00 | 0.19 | 0.06 | 66 | 1018.1 |
| 20260510024053 | 75 | 125 | 0.0 | 0.0 | 0.00 | 0.19 | 0.06 | 67 | 1018.2 |
| 20260510023556 | 75 | 146 | 0.0 | 0.0 | 0.00 | 0.19 | 0.06 | 67 | 1018.1 |
| 20260510023054 | 75 | 134 | 0.0 | 0.0 | 0.00 | 0.19 | 0.06 | 68 | 1018.2 |
| 20260510022557 | 75 | 161 | 0.0 | 0.0 | 0.00 | 0.19 | 0.06 | 68 | 1018.1 |
| 20260510022056 | 75 | 200 | 0.0 | 0.0 | 0.00 | 0.19 | 0.06 | 69 | 1018.1 |
| 20260510021551 | 75 | 203 | 0.0 | 0.0 | 0.00 | 0.19 | 0.06 | 69 | 1018.1 |
| 20260510021050 | 75 | 203 | 0.0 | 0.0 | 0.00 | 0.19 | 0.06 | 69 | 1018.2 |
| 20260510020550 | 75 | 217 | 0.0 | 0.0 | 0.00 | 0.19 | 0.06 | 68 | 1018.1 |
| 20260510020052 | 76 | 144 | 0.0 | 0.0 | 0.00 | 0.19 | 0.06 | 68 | 1018.1 |
| 20260510015549 | 76 | 162 | 0.0 | 0.0 | 0.00 | 0.19 | 0.06 | 68 | 1018.1 |
| 20260510015048 | 76 | 146 | 0.0 | 0.0 | 0.00 | 0.19 | 0.06 | 68 | 1018.2 |
| 20260510014547 | 76 | 171 | 0.0 | 0.0 | 0.00 | 0.19 | 0.06 | 68 | 1018.2 |
| 20260510014148 | 76 | 181 | 0.0 | 0.0 | 0.00 | 0.19 | 0.06 | 68 | 1018.2 |
| 20260510013547 | 76 | 123 | 0.0 | 0.0 | 0.00 | 0.19 | 0.06 | 69 | 1018.2 |
| 20260510013052 | 76 | 116 | 0.0 | 0.0 | 0.00 | 0.19 | 0.06 | 69 | 1018.2 |
| 20260510012545 | 76 | 137 | 0.0 | 0.0 | 0.00 | 0.19 | 0.06 | 69 | 1018.1 |
| 20260510012044 | 76 | 124 | 0.0 | 0.0 | 0.00 | 0.19 | 0.06 | 69 | 1018.1 |
| 20260510011546 | 76 | 138 | 0.0 | 0.0 | 0.00 | 0.19 | 0.06 | 70 | 1017.9 |
| 20260510011043 | 76 | 153 | 0.0 | 0.0 | 0.00 | 0.19 | 0.06 | 71 | 1018.0 |
| 20260510010543 | 75 | 118 | 0.0 | 0.0 | 0.00 | 0.19 | 0.06 | 71 | 1017.9 |
| 20260510010043 | 75 | 101 | 0.0 | 0.0 | 0.00 | 0.19 | 0.06 | 71 | 1017.9 |
| 20260510005543 | 76 | 110 | 0.0 | 0.0 | 0.00 | 0.19 | 0.06 | 72 | 1017.9 |
| 20260510005043 | 76 | 143 | 0.0 | 0.0 | 0.00 | 0.19 | 0.06 | 72 | 1017.8 |
| 20260510004542 | 76 | 137 | 0.0 | 0.0 | 0.00 | 0.19 | 0.06 | 72 | 1017.8 |
| 20260510004042 | 76 | 183 | 0.0 | 0.0 | 0.00 | 0.19 | 0.06 | 72 | 1017.8 |
| 20260510003551 | 76 | 224 | 0.0 | 0.0 | 0.00 | 0.19 | 0.06 | 72 | 1017.7 |
| 20260510003053 | 76 | 162 | 0.0 | 0.0 | 0.00 | 0.19 | 0.06 | 72 | 1017.6 |
| 20260510002542 | 76 | 211 | 0.0 | 0.0 | 0.03 | 0.19 | 0.06 | 71 | 1017.5 |
| 20260510002040 | 76 | 187 | 0.0 | 0.0 | 0.03 | 0.19 | 0.06 | 71 | 1017.6 |
| 20260510001540 | 76 | 220 | 0.0 | 0.0 | 0.03 | 0.19 | 0.06 | 71 | 1017.5 |
| 20260510001043 | 76 | 210 | 0.0 | 0.0 | 0.03 | 0.19 | 0.06 | 70 | 1017.5 |
| 20260510000539 | 76 | 219 | 0.0 | 0.0 | 0.03 | 0.19 | 0.06 | 69 | 1017.4 |
| 20260510000039 | 76 | 211 | 0.0 | 0.0 | 0.03 | 0.19 | 0.06 | 69 | 1017.3 |
| 20260509235538 | 76 | 115 | 0.0 | 0.0 | 0.03 | 0.19 | 0.06 | 69 | 1017.2 |
| 20260509235038 | 76 | 149 | 0.0 | 0.0 | 0.03 | 0.19 | 0.06 | 68 | 1017.2 |
| 20260509234555 | 76 | 153 | 0.0 | 0.0 | 0.03 | 0.19 | 0.06 | 68 | 1017.1 |
| 20260509234037 | 76 | 92 | 0.0 | 0.0 | 0.03 | 0.19 | 0.06 | 67 | 1017.0 |
| 20260509233536 | 77 | 86 | 0.0 | 0.0 | 0.03 | 0.19 | 0.06 | 66 | 1017.0 |
| 20260509233043 | 78 | 66 | 0.0 | 0.0 | 0.03 | 0.19 | 0.06 | 65 | 1017.0 |
| 20260509232535 | 77 | 118 | 0.0 | 0.0 | 0.00 | 0.16 | 0.03 | 65 | 1016.8 |
| 20260509232033 | 77 | 87 | 0.0 | 0.0 | 0.00 | 0.16 | 0.03 | 65 | 1016.8 |
| 20260509231547 | 77 | 130 | 0.0 | 0.0 | 0.00 | 0.16 | 0.03 | 65 | 1016.7 |
| 20260509231034 | 77 | 147 | 0.0 | 0.0 | 0.00 | 0.16 | 0.03 | 64 | 1016.6 |
| 20260509230535 | 77 | 155 | 0.0 | 0.0 | 0.00 | 0.16 | 0.03 | 64 | 1016.7 |
| 20260509230035 | 78 | 123 | 0.0 | 0.0 | 0.00 | 0.16 | 0.03 | 64 | 1016.6 |
| 20260509225535 | 78 | 108 | 0.0 | 0.0 | 0.00 | 0.16 | 0.03 | 64 | 1016.6 |
| 20260509225035 | 78 | 134 | 0.0 | 0.0 | 0.00 | 0.16 | 0.03 | 64 | 1016.7 |
| 20260509224534 | 78 | 114 | 0.0 | 0.0 | 0.00 | 0.16 | 0.03 | 64 | 1016.6 |
| 20260509224033 | 78 | 122 | 0.0 | 0.0 | 0.00 | 0.16 | 0.03 | 64 | 1016.5 |
| 20260509223532 | 78 | 158 | 0.0 | 0.0 | 0.00 | 0.16 | 0.03 | 64 | 1016.5 |
| 20260509223035 | 78 | 170 | 0.0 | 0.0 | 0.00 | 0.16 | 0.03 | 63 | 1016.4 |
| 20260509222533 | 78 | 101 | 0.0 | 0.0 | 0.00 | 0.16 | 0.03 | 63 | 1016.5 |
| 20260509222035 | 78 | 104 | 0.0 | 0.0 | 0.01 | 0.16 | 0.03 | 63 | 1016.4 |
| 20260509221531 | 78 | 103 | 0.0 | 0.0 | 0.03 | 0.16 | 0.03 | 63 | 1016.4 |
| 20260509221034 | 78 | 106 | 0.0 | 0.0 | 0.03 | 0.16 | 0.03 | 63 | 1016.4 |
| 20260509220530 | 78 | 143 | 0.0 | 0.0 | 0.03 | 0.16 | 0.03 | 64 | 1016.5 |
| 20260509220030 | 78 | 96 | 0.0 | 0.0 | 0.03 | 0.16 | 0.03 | 64 | 1016.4 |
| 20260509215532 | 78 | 122 | 0.0 | 0.0 | 0.03 | 0.16 | 0.03 | 64 | 1016.4 |
| 20260509215030 | 78 | 127 | 0.0 | 0.0 | 0.03 | 0.16 | 0.03 | 64 | 1016.4 |
| 20260509214530 | 78 | 120 | 0.0 | 0.0 | 0.03 | 0.16 | 0.03 | 64 | 1016.4 |
| 20260509214029 | 78 | 91 | 0.0 | 0.0 | 0.03 | 0.16 | 0.03 | 64 | 1016.3 |
| 20260509213528 | 79 | 129 | 0.0 | 0.0 | 0.03 | 0.16 | 0.03 | 63 | 1016.2 |
| 20260509213029 | 79 | 157 | 0.0 | 0.0 | 0.03 | 0.16 | 0.03 | 63 | 1016.2 |
| 20260509212527 | 80 | 143 | 0.0 | 0.0 | 0.03 | 0.16 | 0.03 | 62 | 1016.1 |
| 20260509212028 | 82 | 107 | 0.0 | 0.0 | 0.02 | 0.15 | 0.02 | 59 | 1016.1 |
| 20260509211528 | 84 | 89 | 0.0 | 0.0 | 0.00 | 0.13 | 0.00 | 57 | 1015.8 |
| 20260509211027 | 83 | 96 | 0.0 | 0.0 | 0.00 | 0.13 | 0.00 | 57 | 1015.8 |
| 20260509210526 | 83 | 82 | 0.0 | 0.0 | 0.00 | 0.13 | 0.00 | 57 | 1015.8 |
| 20260509210029 | 83 | 105 | 0.0 | 0.0 | 0.00 | 0.13 | 0.00 | 58 | 1015.9 |
| 20260509205526 | 83 | 106 | 0.0 | 0.0 | 0.00 | 0.13 | 0.00 | 57 | 1016.0 |
| 20260509205025 | 83 | 77 | 0.0 | 0.0 | 0.00 | 0.13 | 0.00 | 58 | 1016.0 |
| 20260509204529 | 83 | 181 | 0.0 | 0.0 | 0.00 | 0.13 | 0.00 | 58 | 1016.1 |
| 20260509204027 | 83 | 94 | 0.0 | 0.0 | 0.00 | 0.13 | 0.00 | 58 | 1016.0 |
| 20260509203524 | 84 | 90 | 0.0 | 0.0 | 0.00 | 0.13 | 0.00 | 56 | 1016.1 |
| 20260509203033 | 84 | 127 | 0.0 | 0.0 | 0.00 | 0.13 | 0.00 | 55 | 1016.1 |
| 20260509202523 | 84 | 146 | 0.0 | 0.0 | 0.00 | 0.13 | 0.00 | 55 | 1016.0 |
| 20260509202125 | 84 | 82 | 0.0 | 0.0 | 0.00 | 0.13 | 0.00 | 55 | 1016.1 |
| 20260509201523 | 84 | 136 | 0.0 | 0.0 | 0.00 | 0.13 | 0.00 | 56 | 1016.0 |
| 20260509201022 | 83 | 122 | 0.0 | 0.0 | 0.00 | 0.13 | 0.00 | 57 | 1016.1 |
| 20260509200523 | 84 | 122 | 0.0 | 0.0 | 0.00 | 0.13 | 0.00 | 56 | 1016.1 |
| 20260509200022 | 84 | 70 | 0.0 | 0.0 | 0.00 | 0.13 | 0.00 | 56 | 1016.1 |
| 20260509195521 | 84 | 102 | 0.0 | 0.0 | 0.00 | 0.13 | 0.00 | 57 | 1016.1 |
| 20260509195024 | 84 | 76 | 0.0 | 0.0 | 0.00 | 0.13 | 0.00 | 56 | 1016.1 |
| 20260509194519 | 85 | 88 | 0.0 | 0.0 | 0.00 | 0.13 | 0.00 | 55 | 1016.1 |
| 20260509194020 | 85 | 101 | 0.0 | 0.0 | 0.00 | 0.13 | 0.00 | 55 | 1016.1 |
| 20260509193519 | 85 | 129 | 0.0 | 0.0 | 0.00 | 0.13 | 0.00 | 54 | 1016.1 |
| 20260509193019 | 86 | 87 | 0.0 | 0.0 | 0.00 | 0.13 | 0.00 | 53 | 1016.1 |
| 20260509192517 | 85 | 147 | 0.0 | 0.0 | 0.00 | 0.13 | 0.00 | 53 | 1016.0 |
| 20260509192018 | 85 | 139 | 0.0 | 0.0 | 0.00 | 0.13 | 0.00 | 55 | 1015.8 |
| 20260509191516 | 85 | 88 | 0.0 | 0.0 | 0.00 | 0.13 | 0.00 | 55 | 1016.0 |
| 20260509191018 | 85 | 106 | 0.0 | 0.0 | 0.00 | 0.13 | 0.00 | 54 | 1016.1 |
| 20260509190514 | 85 | 70 | 0.0 | 0.0 | 0.00 | 0.13 | 0.00 | 53 | 1016.1 |
| 20260509190018 | 85 | 120 | 0.0 | 0.0 | 0.00 | 0.13 | 0.00 | 52 | 1016.1 |
| 20260509185513 | 85 | 60 | 0.0 | 0.0 | 0.00 | 0.13 | 0.00 | 53 | 1016.1 |
| 20260509185012 | 86 | 80 | 0.0 | 0.0 | 0.00 | 0.13 | 0.00 | 52 | 1016.2 |
| 20260509184521 | 86 | 98 | 0.0 | 0.0 | 0.00 | 0.13 | 0.00 | 50 | 1016.2 |
| 20260509184010 | 86 | 91 | 0.0 | 0.0 | 0.00 | 0.13 | 0.00 | 49 | 1016.3 |
| 20260509183511 | 86 | 165 | 0.0 | 0.0 | 0.00 | 0.13 | 0.00 | 50 | 1016.3 |
| 20260509183011 | 86 | 77 | 0.0 | 0.0 | 0.00 | 0.13 | 0.00 | 51 | 1016.3 |
| 20260509182510 | 86 | 121 | 0.0 | 0.0 | 0.00 | 0.13 | 0.00 | 50 | 1016.4 |
| 20260509182009 | 87 | 115 | 0.0 | 0.0 | 0.00 | 0.13 | 0.00 | 49 | 1016.5 |
| 20260509181508 | 87 | 203 | 0.0 | 0.0 | 0.00 | 0.13 | 0.00 | 49 | 1016.5 |
| 20260509181007 | 87 | 131 | 0.0 | 0.0 | 0.00 | 0.13 | 0.00 | 49 | 1016.6 |
| 20260509180505 | 86 | 67 | 0.0 | 0.0 | 0.00 | 0.13 | 0.00 | 50 | 1016.6 |
| 20260509180106 | 86 | 94 | 0.0 | 0.0 | 0.00 | 0.13 | 0.00 | 50 | 1016.8 |
| 20260509175507 | 86 | 138 | 0.0 | 0.0 | 0.00 | 0.13 | 0.00 | 50 | 1017.0 |
| 20260509175003 | 86 | 144 | 0.0 | 0.0 | 0.00 | 0.13 | 0.00 | 49 | 1016.9 |
| 20260509174503 | 86 | 109 | 0.0 | 0.0 | 0.00 | 0.13 | 0.00 | 49 | 1017.1 |
| 20260509174001 | 86 | 182 | 0.0 | 0.0 | 0.00 | 0.13 | 0.00 | 51 | 1017.1 |
| 20260509173504 | 86 | 90 | 0.0 | 0.0 | 0.00 | 0.13 | 0.00 | 51 | 1017.2 |
| 20260509173102 | 85 | 111 | 0.0 | 0.0 | 0.00 | 0.13 | 0.00 | 51 | 1017.2 |
| 20260509172558 | 85 | 124 | 0.0 | 0.0 | 0.00 | 0.13 | 0.00 | 53 | 1017.3 |
| 20260509172059 | 85 | 94 | 0.0 | 0.0 | 0.00 | 0.13 | 0.00 | 52 | 1017.4 |
| 20260509171557 | 85 | 69 | 0.0 | 0.0 | 0.00 | 0.13 | 0.00 | 51 | 1017.5 |
| 20260509171059 | 86 | 86 | 0.0 | 0.0 | 0.00 | 0.13 | 0.00 | 51 | 1017.6 |
| 20260509170556 | 85 | 115 | 0.0 | 0.0 | 0.00 | 0.13 | 0.00 | 52 | 1017.5 |
| 20260509170104 | 85 | 126 | 0.0 | 0.0 | 0.00 | 0.13 | 0.00 | 51 | 1017.6 |
| 20260509165557 | 85 | 134 | 0.0 | 0.0 | 0.00 | 0.13 | 0.00 | 51 | 1017.6 |
| 20260509165056 | 85 | 122 | 0.0 | 0.0 | 0.00 | 0.13 | 0.00 | 51 | 1017.7 |
| 20260509164654 | 85 | 98 | 0.0 | 0.0 | 0.00 | 0.13 | 0.00 | 50 | 1017.6 |
| 20260509164058 | 85 | 108 | 0.0 | 0.0 | 0.00 | 0.13 | 0.00 | 51 | 1017.6 |
| 20260509163555 | 85 | 72 | 0.0 | 0.0 | 0.00 | 0.13 | 0.00 | 50 | 1017.7 |
| 20260509163103 | 86 | 85 | 0.0 | 0.0 | 0.00 | 0.13 | 0.00 | 49 | 1017.7 |
| 20260509162552 | 86 | 104 | 0.0 | 0.0 | 0.00 | 0.13 | 0.00 | 49 | 1017.7 |
| 20260509162051 | 86 | 115 | 0.0 | 0.0 | 0.00 | 0.13 | 0.00 | 49 | 1017.8 |
| 20260509161555 | 86 | 96 | 0.0 | 0.0 | 0.00 | 0.13 | 0.00 | 49 | 1017.8 |
| 20260509161053 | 86 | 161 | 0.0 | 0.0 | 0.00 | 0.13 | 0.00 | 49 | 1017.8 |
| 20260509160549 | 86 | 91 | 0.0 | 0.0 | 0.00 | 0.13 | 0.00 | 50 | 1017.8 |
| 20260509160047 | 85 | 127 | 0.0 | 0.0 | 0.00 | 0.13 | 0.00 | 48 | 1017.8 |
| 20260509155547 | 86 | 107 | 0.0 | 0.0 | 0.00 | 0.13 | 0.00 | 49 | 1017.8 |
| 20260509155049 | 86 | 116 | 0.0 | 0.0 | 0.00 | 0.13 | 0.00 | 51 | 1018.1 |
| 20260509154555 | 85 | 118 | 0.0 | 0.0 | 0.00 | 0.13 | 0.00 | 52 | 1018.2 |
| 20260509154046 | 85 | 55 | 0.0 | 0.0 | 0.00 | 0.13 | 0.00 | 50 | 1018.1 |
| 20260509153545 | 84 | 131 | 0.0 | 0.0 | 0.00 | 0.13 | 0.00 | 51 | 1018.0 |
| 20260509153044 | 84 | 95 | 0.0 | 0.0 | 0.00 | 0.13 | 0.00 | 51 | 1017.9 |
| 20260509152642 | 84 | 148 | 0.0 | 0.0 | 0.00 | 0.13 | 0.00 | 51 | 1017.9 |
| 20260509152041 | 84 | 131 | 0.0 | 0.0 | 0.00 | 0.13 | 0.00 | 51 | 1017.9 |
| 20260509151541 | 85 | 87 | 0.0 | 0.0 | 0.00 | 0.13 | 0.00 | 50 | 1018.0 |
| 20260509151040 | 85 | 112 | 0.0 | 0.0 | 0.00 | 0.13 | 0.00 | 50 | 1018.1 |
| 20260509150539 | 85 | 90 | 0.0 | 0.0 | 0.00 | 0.13 | 0.00 | 50 | 1018.1 |
| 20260509150037 | 85 | 113 | 0.0 | 0.0 | 0.00 | 0.13 | 0.00 | 49 | 1018.1 |
| 20260509145536 | 86 | 86 | 0.0 | 0.0 | 0.00 | 0.13 | 0.00 | 49 | 1018.1 |
| 20260509145035 | 86 | 135 | 0.0 | 0.0 | 0.00 | 0.13 | 0.00 | 50 | 1018.1 |
| 20260509144534 | 85 | 179 | 0.0 | 0.0 | 0.00 | 0.13 | 0.00 | 52 | 1018.1 |
| 20260509144031 | 84 | 80 | 0.0 | 0.0 | 0.00 | 0.13 | 0.00 | 51 | 1018.0 |
| 20260509143534 | 84 | 172 | 0.0 | 0.0 | 0.00 | 0.13 | 0.00 | 53 | 1018.0 |
| 20260509143035 | 84 | 174 | 0.0 | 0.0 | 0.00 | 0.13 | 0.00 | 54 | 1018.1 |
| 20260509142527 | 84 | 131 | 0.0 | 0.0 | 0.00 | 0.13 | 0.00 | 53 | 1018.1 |
| 20260509142028 | 84 | 88 | 0.0 | 0.0 | 0.00 | 0.13 | 0.00 | 54 | 1018.2 |
| 20260509141529 | 84 | 117 | 0.0 | 0.0 | 0.00 | 0.13 | 0.00 | 55 | 1018.2 |
| 20260509141026 | 84 | 93 | 0.0 | 0.0 | 0.00 | 0.13 | 0.00 | 55 | 1018.2 |
| 20260509140526 | 84 | 68 | 0.0 | 0.0 | 0.00 | 0.13 | 0.00 | 54 | 1018.2 |
| 20260509140024 | 84 | 193 | 0.0 | 0.0 | 0.00 | 0.13 | 0.00 | 55 | 1018.1 |
| 20260509135522 | 84 | 116 | 0.0 | 0.0 | 0.00 | 0.13 | 0.00 | 61 | 1018.2 |
| 20260509135022 | 84 | 116 | 0.0 | 0.0 | 0.00 | 0.13 | 0.00 | 61 | 1018.2 |
| 20260509134519 | 83 | 44 | 0.0 | 0.0 | 0.00 | 0.13 | 0.00 | 61 | 1018.1 |
| 20260509134018 | 83 | 157 | 0.0 | 0.0 | 0.00 | 0.13 | 0.00 | 62 | 1018.1 |
| 20260509133521 | 83 | 146 | 0.0 | 0.0 | 0.00 | 0.13 | 0.00 | 62 | 1018.0 |
| 20260509133018 | 83 | 82 | 0.0 | 0.0 | 0.00 | 0.13 | 0.00 | 62 | 1018.0 |
| 20260509132515 | 83 | 127 | 0.0 | 0.0 | 0.00 | 0.13 | 0.00 | 62 | 1018.1 |
| 20260509132014 | 83 | 68 | 0.0 | 0.0 | 0.00 | 0.13 | 0.00 | 62 | 1017.9 |
| 20260509131513 | 83 | 131 | 0.0 | 0.0 | 0.00 | 0.13 | 0.00 | 63 | 1017.9 |
| 20260509131012 | 83 | 53 | 0.0 | 0.0 | 0.00 | 0.13 | 0.00 | 62 | 1017.9 |
| 20260509130518 | 83 | 65 | 0.0 | 0.0 | 0.00 | 0.13 | 0.00 | 63 | 1017.9 |
| 20260509130010 | 83 | 153 | 0.0 | 0.0 | 0.00 | 0.13 | 0.00 | 63 | 1017.9 |
| 20260509125516 | 82 | 140 | 0.0 | 0.0 | 0.00 | 0.13 | 0.00 | 64 | 1017.9 |
| 20260509125007 | 82 | 110 | 0.0 | 0.0 | 0.00 | 0.13 | 0.00 | 64 | 1017.8 |
| 20260509124507 | 82 | 83 | 0.0 | 0.0 | 0.00 | 0.13 | 0.00 | 64 | 1017.8 |
| 20260509124005 | 82 | 141 | 0.0 | 0.0 | 0.00 | 0.13 | 0.00 | 65 | 1017.8 |
| 20260509123503 | 82 | 131 | 0.0 | 0.0 | 0.00 | 0.13 | 0.00 | 66 | 1017.7 |
| 20260509123002 | 82 | 114 | 0.0 | 0.0 | 0.00 | 0.13 | 0.00 | 65 | 1017.6 |
| 20260509122501 | 82 | 174 | 0.0 | 0.0 | 0.00 | 0.13 | 0.00 | 66 | 1017.6 |
| 20260509122100 | 81 | 129 | 0.0 | 0.0 | 0.00 | 0.13 | 0.00 | 66 | 1017.7 |
| 20260509121603 | 81 | 172 | 0.0 | 0.0 | 0.00 | 0.13 | 0.00 | 67 | 1017.6 |
| 20260509121057 | 81 | 120 | 0.0 | 0.0 | 0.00 | 0.13 | 0.00 | 68 | 1017.6 |
| 20260509120554 | 81 | 198 | 0.0 | 0.0 | 0.00 | 0.13 | 0.00 | 68 | 1017.6 |
| 20260509120053 | 80 | 93 | 0.0 | 0.0 | 0.00 | 0.13 | 0.00 | 68 | 1017.6 |
| 20260509115556 | 80 | 139 | 0.0 | 0.0 | 0.00 | 0.13 | 0.00 | 68 | 1017.5 |
| 20260509115050 | 80 | 155 | 0.0 | 0.0 | 0.00 | 0.13 | 0.00 | 68 | 1017.4 |
| 20260509114600 | 79 | 127 | 0.0 | 0.0 | 0.00 | 0.13 | 0.00 | 70 | 1017.5 |
| 20260509114047 | 77 | 281 | 0.0 | 0.0 | 0.00 | 0.13 | 0.00 | 72 | 1017.4 |
| 20260509113545 | 75 | 281 | 0.0 | 0.0 | 0.00 | 0.13 | 0.00 | 73 | 1017.3 |
| 20260509113042 | 74 | 281 | 0.0 | 0.0 | 0.00 | 0.13 | 0.00 | 74 | 1017.3 |
| 20260509112641 | 74 | 281 | 0.0 | 0.0 | 0.00 | 0.13 | 0.00 | 75 | 1017.3 |
| 20260509112043 | 73 | 316 | 0.0 | 0.0 | 0.00 | 0.13 | 0.00 | 75 | 1017.3 |
| 20260509111538 | 73 | 307 | 0.0 | 0.0 | 0.00 | 0.13 | 0.00 | 76 | 1017.2 |
| 20260509111037 | 72 | 300 | 0.0 | 0.0 | 0.00 | 0.13 | 0.00 | 78 | 1017.2 |
| 20260509110536 | 72 | 335 | 0.0 | 0.0 | 0.00 | 0.13 | 0.00 | 79 | 1017.2 |
| 20260509110035 | 71 | 310 | 0.0 | 0.0 | 0.00 | 0.13 | 0.00 | 80 | 1017.2 |
| 20260509105633 | 71 | 304 | 0.0 | 0.0 | 0.00 | 0.13 | 0.00 | 80 | 1017.2 |
| 20260509105032 | 71 | 298 | 0.0 | 0.0 | 0.00 | 0.13 | 0.00 | 81 | 1017.1 |
| 20260509104531 | 71 | 301 | 0.0 | 0.0 | 0.00 | 0.13 | 0.00 | 82 | 1017.0 |
| 20260509104030 | 70 | 301 | 0.0 | 0.0 | 0.00 | 0.13 | 0.00 | 82 | 1016.9 |
| 20260509103528 | 70 | 315 | 0.0 | 0.0 | 0.00 | 0.13 | 0.00 | 82 | 1016.8 |
| 20260509103027 | 0 | 0.0 | 0.0 | 0.00 | 0.13 | 0.00 | 1016.8 | ||
| 20260509102525 | 0 | 0.0 | 0.0 | 0.00 | 0.13 | 0.00 | 1016.8 | ||
| 20260509102023 | 0 | 0.0 | 0.0 | 0.00 | 0.13 | 0.00 | 1016.7 | ||
| 20260509101524 | 0 | 0.0 | 0.0 | 0.00 | 0.13 | 0.00 | 1016.7 | ||
| 20260509101020 | 0 | 0.0 | 0.0 | 0.00 | 0.13 | 0.00 | 1016.6 | ||
| 20260509100518 | 0 | 0.0 | 0.0 | 0.00 | 0.13 | 0.00 | 1016.6 | ||
| 20260509100018 | 0 | 0.0 | 0.0 | 0.00 | 0.13 | 0.00 | 1016.6 | ||
| 20260509095516 | 0 | 0.0 | 0.0 | 0.00 | 0.13 | 0.00 | 1016.5 | ||
| 20260509095014 | 0 | 0.0 | 0.0 | 0.00 | 0.13 | 0.00 | 1016.6 | ||
| 20260509094512 | 0 | 0.0 | 0.0 | 0.00 | 0.13 | 0.00 | 1016.6 | ||
| 20260509094012 | 0 | 0.0 | 0.0 | 0.00 | 0.13 | 0.00 | 1016.5 | ||
| 20260509093509 | 0 | 0.0 | 0.0 | 0.00 | 0.13 | 0.00 | 1016.5 | ||
| 20260509093008 | 0 | 0.0 | 0.0 | 0.00 | 0.13 | 0.00 | 1016.4 | ||
| 20260509092508 | 0 | 0.0 | 0.0 | 0.00 | 0.13 | 0.00 | 1016.4 | ||
| 20260509092004 | 0 | 0.0 | 0.0 | 0.00 | 0.13 | 0.00 | 1016.4 | ||
| 20260509091503 | 0 | 0.0 | 0.0 | 0.00 | 0.13 | 0.00 | 1016.3 | ||
| 20260509091105 | 0 | 0.0 | 0.0 | 0.00 | 0.13 | 0.00 | 1016.2 | ||
| 20260509090601 | 0 | 0.0 | 0.0 | 0.00 | 0.13 | 0.00 | 1016.2 | ||
| 20260509090123 | 0 | 0.0 | 0.0 | 0.00 | 0.13 | 0.00 | 1016.1 | ||
| 20260509085559 | 0 | 0.0 | 0.0 | 0.00 | 0.13 | 0.00 | 1016.2 | ||
| 20260509085059 | 0 | 0.0 | 0.0 | 0.00 | 0.13 | 0.00 | 1016.1 | ||
| 20260509084553 | 0 | 0.0 | 0.0 | 0.00 | 0.13 | 0.00 | 1016.0 | ||
| 20260509084052 | 0 | 0.0 | 0.0 | 0.00 | 0.13 | 0.00 | 1016.0 | ||
| 20260509083550 | 0 | 309 | 0.0 | 0.0 | 0.00 | 0.13 | 0.00 | 1016.0 | |
| 20260509083053 | 0 | 309 | 0.0 | 0.0 | 0.00 | 0.13 | 0.00 | 1016.0 | |
| 20260509082547 | 70 | 306 | 0.0 | 0.0 | 0.00 | 0.13 | 0.00 | 81 | 1016.0 |
| 20260509082046 | 70 | 306 | 0.0 | 0.0 | 0.00 | 0.13 | 0.00 | 81 | 1016.0 |
| 20260509081545 | 70 | 306 | 0.0 | 0.0 | 0.00 | 0.13 | 0.00 | 82 | 1016.0 |
| 20260509081044 | 70 | 306 | 0.0 | 0.0 | 0.00 | 0.13 | 0.00 | 81 | 1016.0 |
| 20260509080545 | 70 | 306 | 0.0 | 0.0 | 0.00 | 0.13 | 0.00 | 81 | 1016.0 |
| 20260509075543 | 70 | 306 | 0.0 | 0.0 | 0.00 | 0.13 | 0.00 | 81 | 1015.9 |
| 20260509075047 | 70 | 306 | 0.0 | 0.0 | 0.00 | 0.13 | 0.00 | 81 | 1016.0 |
| 20260509074541 | 70 | 306 | 0.0 | 0.0 | 0.00 | 0.13 | 0.00 | 81 | 1016.0 |
| 20260509074043 | 70 | 304 | 0.0 | 0.0 | 0.00 | 0.13 | 0.00 | 81 | 1015.9 |
| 20260509073539 | 70 | 328 | 0.0 | 0.0 | 0.00 | 0.13 | 0.00 | 81 | 1016.0 |
| 20260509073037 | 70 | 333 | 0.0 | 0.0 | 0.00 | 0.13 | 0.00 | 81 | 1016.1 |